Weather History for Kremmling, CO

Change the Weather History Date:

Saturday, February 16, 2013

  Actual Average (KEGE) Record (KEGE)
Temperature  
Mean Temperature 14 °F -  
Max Temperature 30 °F 40 °F 57 °F (1961)
Min Temperature -2 °F 13 °F -19 °F (1966)
Degree Days  
Heating Degree Days 51    
Moisture  
Dew Point 4 °F    
Average Humidity 78    
Maximum Humidity 86    
Minimum Humidity 55    
Precipitation  
Precipitation 0.00 in - - ()
Sea Level Pressure  
Sea Level Pressure 30.29 in    
Wind  
Wind Speed 2 mph (NNE)    
Max Wind Speed 5 mph    
Max Gust Speed -    
Averages and records for this station are not official NWS values.
T = Trace of Precipitation, MM = Missing Value Source: NWS Daily Summary

Daily Weather History Graph

Daily Weather History Graph

Search for Another Location

Airport:

Trip Planner

Search our weather history database for the weather conditions in past years. The results will help you decide how hot, cold, wet, or windy it might be!

Date:

Astronomy

Feb. 16, 2013 Rise Set
Actual Time 6:56 AM MST 5:42 PM MST
Civil Twilight 6:29 AM MST 6:10 PM MST
Nautical Twilight 5:57 AM MST 6:42 PM MST
Astronomical Twilight 5:25 AM MST 7:13 PM MST
Moon 10:11 AM MST (2/16) No Moon Set
Length of Visible Light 11h 41m
Length of Day
10h 46m
Waxing Crescent, 40% of the Moon is Illuminated
Feb 16
Waxing Crescent
Feb 17
First Quarter
Feb 25
Full
Mar 4
Last Quarter
Mar 11
New

Hourly Weather History & Observations

Time (MST) Temp. Windchill Dew Point Humidity Pressure Visibility Wind Dir Wind Speed Gust Speed Precip Events Conditions
12:16 AM 17.6 °F 10.7 °F 10.4 °F 73% 30.39 in - North 4.6 mph - N/A   Scattered Clouds
12:36 AM 14.0 °F 8.2 °F 8.6 °F 79% 30.39 in - North 3.5 mph - N/A   Clear
12:56 AM 14.0 °F 6.5 °F 8.6 °F 79% 30.39 in - North 4.6 mph - N/A   Clear
1:16 AM 12.2 °F 6.1 °F 8.6 °F 85% 30.39 in - NNE 3.5 mph - N/A   Clear
1:36 AM 10.4 °F - 5.0 °F 79% 30.39 in - Calm Calm - N/A   Clear
1:56 AM 10.4 °F - 5.0 °F 79% 30.39 in - Calm Calm - N/A   Clear
2:16 AM 8.6 °F - 3.2 °F 79% 30.39 in - Calm Calm - N/A   Unknown
2:36 AM 8.6 °F - 3.2 °F 79% 30.39 in - Calm Calm - N/A   Unknown
2:56 AM 6.8 °F -0.1 °F 3.2 °F 85% 30.39 in - ENE 3.5 mph - N/A   Unknown
3:16 AM 8.6 °F 2.0 °F 3.2 °F 79% 30.38 in - WNW 3.5 mph - N/A   Clear
3:36 AM 5.0 °F - 1.4 °F 85% 30.38 in - Calm Calm - N/A   Unknown
3:56 AM 5.0 °F - 1.4 °F 85% 30.38 in - Calm Calm - N/A   Clear
4:16 AM 1.4 °F - -2.2 °F 85% 30.38 in - Calm Calm - N/A   Unknown
4:36 AM 3.2 °F - -0.4 °F 85% 30.39 in - Calm Calm - N/A   Unknown
4:56 AM 1.4 °F - -2.2 °F 85% 30.39 in - Calm Calm - N/A   Unknown
5:16 AM 1.4 °F - -4.0 °F 78% 30.38 in - Calm Calm - N/A   Clear
5:36 AM -0.4 °F - -4.0 °F 85% 30.38 in - Calm Calm - N/A   Unknown
5:56 AM -2.2 °F -10.4 °F -5.8 °F 85% 30.38 in - East 3.5 mph - N/A   Unknown
6:16 AM -0.4 °F - -4.0 °F 85% 30.38 in - Calm Calm - N/A   Unknown
6:36 AM -0.4 °F - -4.0 °F 85% 30.38 in - Calm Calm - N/A   Unknown
6:56 AM -2.2 °F - -7.6 °F 78% 30.38 in - Calm Calm - N/A   Clear
7:16 AM -2.2 °F - -7.6 °F 78% 30.38 in - Calm Calm - N/A   Clear
7:36 AM -0.4 °F - -5.8 °F 78% 30.38 in - Calm Calm - N/A   Unknown
7:56 AM 1.4 °F - -4.0 °F 78% 30.38 in - Calm Calm - N/A   Unknown
8:16 AM 1.4 °F - -4.0 °F 78% 30.38 in - Calm Calm - N/A   Clear
8:35 AM 3.2 °F - -0.4 °F 85% 30.38 in - Calm Calm - N/A   Unknown
8:56 AM 3.2 °F - -2.2 °F 78% 30.38 in - Calm Calm - N/A   Clear
3:56 PM 28.4 °F - 14.0 °F 55% 30.21 in - Calm Calm - N/A   Clear
4:16 PM 30.2 °F - 15.8 °F 55% 30.20 in - Calm Calm - N/A   Clear
4:36 PM 28.4 °F 24.6 °F 14.0 °F 55% 30.20 in - SE 3.5 mph - N/A   Clear
4:56 PM 28.4 °F - 14.0 °F 55% 30.19 in - Calm Calm - N/A   Clear
5:16 PM 26.6 °F - 14.0 °F 59% 30.19 in - Calm Calm - N/A   Clear
5:36 PM 23.0 °F - 12.2 °F 63% 30.18 in - Calm Calm - N/A   Clear
5:56 PM 21.2 °F - 12.2 °F 68% 30.18 in - Calm Calm - N/A   Clear
6:16 PM 19.4 °F - 12.2 °F 74% 30.19 in - Calm Calm - N/A   Clear
6:35 PM 17.6 °F 12.3 °F 12.2 °F 79% 30.19 in - ESE 3.5 mph - N/A   Clear
6:56 PM 15.8 °F - 10.4 °F 79% 30.19 in - Calm Calm - N/A   Clear
7:16 PM 17.6 °F - 10.4 °F 73% 30.19 in - Calm Calm - N/A   Clear
7:36 PM 14.0 °F 8.2 °F 10.4 °F 86% 30.18 in - NNE 3.5 mph - N/A   Clear
7:56 PM 14.0 °F 8.2 °F 10.4 °F 86% 30.18 in - NW 3.5 mph - N/A   Clear
8:16 PM 12.2 °F - 8.6 °F 85% 30.18 in - Calm Calm - N/A   Clear
8:36 PM 12.2 °F 6.1 °F 5.0 °F 73% 30.18 in - East 3.5 mph - N/A   Clear
9:16 PM 10.4 °F - 5.0 °F 79% 30.18 in - Calm Calm - N/A   Unknown
9:36 PM 10.4 °F - 5.0 °F 79% 30.17 in - Calm Calm - N/A   Unknown
9:56 PM 10.4 °F 4.0 °F 6.8 °F 85% 30.17 in - WNW 3.5 mph - N/A   Unknown
10:16 PM 8.6 °F - 3.2 °F 79% 30.17 in - Calm Calm - N/A   Unknown
10:36 PM 10.4 °F - 5.0 °F 79% 30.16 in - Calm Calm - N/A   Clear
10:56 PM 5.0 °F - 1.4 °F 85% 30.16 in - Calm Calm - N/A   Unknown
11:15 PM 8.6 °F - 3.2 °F 79% 30.15 in - Calm Calm - N/A   Unknown
11:36 PM 5.0 °F - 1.4 °F 85% 30.14 in - Calm Calm - N/A   Unknown
11:56 PM 3.2 °F - -0.4 °F 85% 30.14 in - Calm Calm - N/A   Unknown